• In Spain
  • List of Countries
  • For 7 days
  • Water Temperature
  • Satellite Maps
  • Weather Map
  • Weather Widgets
  • user-avatar
    Login

    Hourly Weather Bolshoe Ogarevo

    Today, 23 July, Monday

    Time Temperature Precipitation Wind Pressure Humidity
    00:00 +19°C° 0.1 mm 4 mps 736 mmHg 96%
    01:00 +19°C° 0 mm 4 mps 736 mmHg 96%
    02:00 +18°C° 0 mm 4 mps 736 mmHg 96%
    03:00 +19°C° 0 mm 4 mps 736 mmHg 97%
    04:00 +19°C° 0 mm 4 mps 737 mmHg 96%
    05:00 +19°C° 0 mm 4 mps 737 mmHg 96%
    06:00 +17°C° 0 mm 5 mps 737 mmHg 95%
    07:00 +19°C° 0 mm 5 mps 737 mmHg 95%
    08:00 +19°C° 0 mm 5 mps 737 mmHg 94%
    09:00 +19°C° 0 mm 5 mps 737 mmHg 93%
    10:00 +19°C° 0 mm 5 mps 737 mmHg 92%
    11:00 +19°C° 0 mm 5 mps 737 mmHg 91%
    12:00 +19°C° 0 mm 5 mps 737 mmHg 90%
    13:00 +20°C° 0 mm 5 mps 737 mmHg 89%
    14:00 +20°C° 0 mm 5 mps 737 mmHg 88%
    15:00 +20°C° 0 mm 5 mps 737 mmHg 87%
    16:00 +21°C° 0 mm 5 mps 737 mmHg 88%
    17:00 +21°C° 0 mm 5 mps 737 mmHg 88%
    18:00 +21°C° 0 mm 5 mps 737 mmHg 88%
    19:00 +20°C° 0.4 mm 5 mps 737 mmHg 89%
    20:00 +20°C° 0.4 mm 5 mps 737 mmHg 90%
    21:00 +20°C° 0.4 mm 5 mps 737 mmHg 92%
    22:00 +19°C° 0.8 mm 5 mps 737 mmHg 93%
    23:00 +19°C° 0.8 mm 5 mps 737 mmHg 94%

    Tomorrow, 24 July, Tuesday

    Time Temperature Precipitation Wind Pressure Humidity
    00:00 +19°C° 0.8 mm 4 mps 737 mmHg 96%
    01:00 +19°C° 0.2 mm 4 mps 737 mmHg 96%
    02:00 +19°C° 0.2 mm 4 mps 737 mmHg 96%
    03:00 +18°C° 0.2 mm 4 mps 737 mmHg 96%
    04:00 +18°C° 0 mm 4 mps 737 mmHg 96%
    05:00 +18°C° 0 mm 4 mps 738 mmHg 96%
    06:00 +18°C° 0 mm 4 mps 738 mmHg 96%
    07:00 +19°C° 0 mm 3 mps 738 mmHg 95%
    08:00 +19°C° 0 mm 3 mps 738 mmHg 94%
    09:00 +20°C° 0 mm 3 mps 738 mmHg 92%
    10:00 +21°C° 0 mm 3 mps 739 mmHg 91%
    11:00 +21°C° 0 mm 3 mps 739 mmHg 89%
    12:00 +22°C° 0 mm 3 mps 739 mmHg 87%
    13:00 +24°C° 0.2 mm 3 mps 739 mmHg 85%
    14:00 +24°C° 0.2 mm 3 mps 739 mmHg 83%
    15:00 +25°C° 0.2 mm 3 mps 739 mmHg 81%
    16:00 +25°C° 0.4 mm 3 mps 739 mmHg 82%
    17:00 +25°C° 0.4 mm 3 mps 739 mmHg 83%
    18:00 +25°C° 0.4 mm 2 mps 739 mmHg 83%
    19:00 +24°C° 0.2 mm 3 mps 739 mmHg 87%
    20:00 +22°C° 0.2 mm 3 mps 740 mmHg 90%
    21:00 +21°C° 0.2 mm 3 mps 740 mmHg 93%
    22:00 +21°C° 0 mm 3 mps 740 mmHg 94%
    23:00 +20°C° 0 mm 3 mps 740 mmHg 95%

    Day after tomorrow, 25 July, Wednesday

    Time Temperature Precipitation Wind Pressure Humidity
    00:00 +20°C° 0 mm 3 mps 741 mmHg 96%
    01:00 +20°C° 0.1 mm 3 mps 741 mmHg 96%
    02:00 +19°C° 0.1 mm 3 mps 741 mmHg 96%
    03:00 +19°C° 0.1 mm 4 mps 741 mmHg 97%
    04:00 +19°C° 0.1 mm 4 mps 741 mmHg 96%
    05:00 +19°C° 0.1 mm 4 mps 741 mmHg 95%
    06:00 +19°C° 0.1 mm 3 mps 741 mmHg 94%
    07:00 +19°C° 0 mm 4 mps 742 mmHg 89%
    08:00 +20°C° 0 mm 4 mps 742 mmHg 85%
    09:00 +20°C° 0 mm 4 mps 742 mmHg 81%
    10:00 +21°C° 0 mm 5 mps 742 mmHg 77%
    11:00 +21°C° 0 mm 5 mps 742 mmHg 72%
    12:00 +22°C° 0 mm 5 mps 742 mmHg 68%
    13:00 +22°C° 0 mm 5 mps 742 mmHg 70%
    14:00 +22°C° 0 mm 5 mps 742 mmHg 71%
    15:00 +22°C° 0 mm 5 mps 742 mmHg 73%
    16:00 +21°C° 0.1 mm 5 mps 742 mmHg 77%
    17:00 +20°C° 0.1 mm 4 mps 742 mmHg 81%
    18:00 +19°C° 0.1 mm 4 mps 742 mmHg 84%
    19:00 +19°C° 0 mm 3 mps 742 mmHg 87%
    20:00 +18°C° 0 mm 3 mps 742 mmHg 90%
    21:00 +18°C° 0 mm 2 mps 742 mmHg 92%
    22:00 +17°C° 0 mm 2 mps 742 mmHg 94%
    23:00 +17°C° 0 mm 2 mps 742 mmHg 96%

    26 July, Thursday

    Time Temperature Precipitation Wind Pressure Humidity
    00:00 +17°C° 0 mm 2 mps 742 mmHg 97%
    01:00 +17°C° 0 mm 2 mps 742 mmHg 97%
    02:00 +17°C° 0 mm 2 mps 742 mmHg 97%
    03:00 +17°C° 0 mm 2 mps 742 mmHg 97%
    04:00 +17°C° 0 mm 2 mps 742 mmHg 96%
    05:00 +17°C° 0 mm 2 mps 742 mmHg 95%
    06:00 +18°C° 0 mm 2 mps 742 mmHg 94%
    07:00 +19°C° 0 mm 2 mps 742 mmHg 90%
    08:00 +20°C° 0 mm 3 mps 742 mmHg 86%
    09:00 +22°C° 0 mm 3 mps 743 mmHg 82%
    10:00 +24°C° 0 mm 3 mps 743 mmHg 79%
    11:00 +25°C° 0 mm 3 mps 743 mmHg 76%
    12:00 +26°C° 0 mm 4 mps 743 mmHg 74%
    13:00 +27°C° 0 mm 4 mps 743 mmHg 73%
    14:00 +27°C° 0 mm 4 mps 743 mmHg 72%
    15:00 +28°C° 0 mm 4 mps 743 mmHg 71%
    16:00 +28°C° 0 mm 4 mps 743 mmHg 73%
    17:00 +28°C° 0 mm 4 mps 743 mmHg 74%
    18:00 +28°C° 0 mm 4 mps 743 mmHg 76%
    19:00 +26°C° 0 mm 4 mps 743 mmHg 79%
    20:00 +25°C° 0 mm 4 mps 743 mmHg 83%
    21:00 +23°C° 0 mm 4 mps 743 mmHg 86%
    22:00 +23°C° 0.1 mm 4 mps 743 mmHg 87%
    23:00 +22°C° 0.1 mm 4 mps 743 mmHg 88%

    27 July, Friday

    Time Temperature Precipitation Wind Pressure Humidity
    00:00 +22°C° 0.1 mm 3 mps 743 mmHg 88%
    01:00 +21°C° 0 mm 3 mps 743 mmHg 89%
    02:00 +21°C° 0 mm 3 mps 744 mmHg 90%
    03:00 +20°C° 0 mm 3 mps 744 mmHg 90%
    04:00 +20°C° 0 mm 3 mps 744 mmHg 90%
    05:00 +20°C° 0 mm 3 mps 744 mmHg 89%
    06:00 +20°C° 0 mm 3 mps 744 mmHg 88%
    07:00 +21°C° 0 mm 3 mps 744 mmHg 84%
    08:00 +23°C° 0 mm 4 mps 745 mmHg 79%
    09:00 +25°C° 0 mm 4 mps 745 mmHg 74%
    10:00 +27°C° 0 mm 4 mps 745 mmHg 70%
    11:00 +28°C° 0 mm 5 mps 745 mmHg 66%
    12:00 +29°C° 0 mm 5 mps 745 mmHg 61%
    13:00 +30°C° 0 mm 5 mps 745 mmHg 60%
    14:00 +30°C° 0 mm 5 mps 745 mmHg 59%
    15:00 +30°C° 0 mm 5 mps 745 mmHg 59%
    16:00 +30°C° 0.4 mm 4 mps 745 mmHg 63%
    17:00 +29°C° 0.4 mm 4 mps 744 mmHg 68%
    18:00 +28°C° 0.4 mm 3 mps 744 mmHg 73%
    19:00 +27°C° 0.1 mm 3 mps 745 mmHg 77%
    20:00 +25°C° 0.1 mm 3 mps 745 mmHg 80%
    21:00 +22°C° 0.1 mm 3 mps 745 mmHg 84%
    22:00 +22°C° 0 mm 3 mps 745 mmHg 85%
    23:00 +21°C° 0 mm 3 mps 745 mmHg 87%

    28 July, Saturday

    Time Temperature Precipitation Wind Pressure Humidity
    00:00 +20°C° 0 mm 3 mps 745 mmHg 88%
    01:00 +20°C° 0 mm 3 mps 745 mmHg 89%
    02:00 +19°C° 0 mm 3 mps 744 mmHg 90%
    03:00 +19°C° 0 mm 3 mps 744 mmHg 91%
    04:00 +19°C° 0 mm 3 mps 744 mmHg 90%
    05:00 +19°C° 0 mm 3 mps 744 mmHg 89%
    06:00 +20°C° 0 mm 3 mps 744 mmHg 88%
    07:00 +21°C° 0.1 mm 3 mps 744 mmHg 84%
    08:00 +22°C° 0.1 mm 4 mps 744 mmHg 81%
    09:00 +25°C° 0.1 mm 4 mps 744 mmHg 77%
    10:00 +26°C° 0.2 mm 4 mps 744 mmHg 73%
    11:00 +27°C° 0.2 mm 4 mps 744 mmHg 68%
    12:00 +28°C° 0.2 mm 4 mps 744 mmHg 63%
    13:00 +28°C° 0 mm 4 mps 744 mmHg 61%
    14:00 +29°C° 0 mm 4 mps 744 mmHg 60%
    15:00 +29°C° 0 mm 3 mps 744 mmHg 58%
    16:00 +28°C° 0.2 mm 3 mps 744 mmHg 63%
    17:00 +28°C° 0.2 mm 2 mps 744 mmHg 68%
    18:00 +27°C° 0.2 mm 2 mps 744 mmHg 72%
    19:00 +26°C° 0.1 mm 2 mps 744 mmHg 73%
    20:00 +25°C° 0.1 mm 2 mps 744 mmHg 74%
    21:00 +24°C° 0.1 mm 2 mps 744 mmHg 74%
    22:00 +24°C° 0 mm 2 mps 744 mmHg 76%
    23:00 +23°C° 0 mm 2 mps 744 mmHg 77%
    Show more